{"data":{"norad_id":51776,"epoch":"2026-09-20T01:19:13.025568Z","epoch_age_seconds":89471,"freshness":"FRESH","line1":"1 51776U 22017J   26263.05501187  .00000943  00000+0  37939-4 0  9994","line2":"2 51776  53.1597 173.8141 0001164  89.1273 270.9863 15.35404567252087","mean_motion":15.35404567,"eccentricity":0.0001164,"inclination_deg":53.1597,"raan_deg":173.8141,"arg_perigee_deg":89.1273,"mean_anomaly_deg":270.9863,"bstar":3.7939e-5,"rev_number":25208,"period_min":93.786356439827,"perigee_km":458.92315697152,"apogee_km":460.51500986774,"semimajor_km":6837.8560834196,"source":"CELESTRAK","updated_at":"2026-09-20T09:00:39.937534Z"}}